CAPE
0 0 0 0 0 0 0 0 0 0 0 0 0 0 0 0 0 0 0 0 0 38 653 1215 1706 1841 1725 1581 1539 1396 1136 1074 1114 1001 739 814 663 544 633 825 748 499 335 99 25 0 2 2 0
0 0 0 0 0 0 0 0 0 0 0 0 0 0 0 0 0 0 0 0 0 3 670 1012 1449 1732 1741 1650 1692 1398 1093 1148 1156 879 630 502 541 155 127 548 528 283 66 5 0 0 0 0 0
0 0 0 0 0 0 0 0 0 0 0 0 0 0 0 0 0 0 0 0 0 0 619 1045 1342 1760 1747 1758 1772 1428 1097 1140 1146 1016 793 577 345 133 30 3 33 20 0 0 0 0 0 0 0
0 0 0 0 0 0 0 0 0 0 0 0 0 0 0 0 0 0 0 0 0 0 365 888 1279 1622 1735 1860 1724 1366 1081 1046 1232 1158 982 448 63 3 1 3 5 6 0 0 0 0 0 0 0
0 0 0 0 0 0 0 0 0 0 0 0 0 0 0 0 0 0 0 0 16 0 102 830 1058 1373 1548 1674 1810 1577 1286 1129 1549 1493 969 456 28 2 2 4 8 5 1 0 0 0 0 0 0
0 0 0 0 0 0 0 0 0 0 0 0 0 0 0 0 0 0 0 0 13 24 91 227 747 1052 1295 1504 1631 1614 1537 1590 1599 1130 591 158 26 2 1 5 5 4 0 0 0 0 0 0 0
0 0 0 0 0 0 0 0 0 0 0 0 0 0 0 0 0 0 0 0 0 33 112 236 501 806 819 1005 1222 1294 1426 1513 1072 602 307 92 28 5 3 1 2 0 0 0 0 0 0 0 0
0 0 0 0 0 0 0 0 0 0 0 0 0 0 0 0 0 0 0 0 0 9 121 212 288 397 569 682 643 701 844 542 433 241 2 0 0 3 3 0 0 0 0 0 0 0 0 0 0
0 0 0 0 0 0 0 0 0 0 0 0 0 0 0 0 0 0 0 0 0 0 64 129 183 268 280 280 277 77 346 371 240 16 0 0 3 1 0 0 0 0 0 0 0 0 0 0 0
0 0 0 0 0 0 0 0 0 0 0 0 0 0 0 0 0 0 0 0 0 0 0 25 81 129 185 132 144 109 147 112 142 73 3 3 5 0 0 0 0 0 0 0 0 0 0 0 0
0 0 0 0 0 0 0 0 0 0 0 0 0 0 0 0 0 0 0 0 0 0 0 0 0 14 56 109 80 157 95 96 3 86 15 7 6 0 0 0 0 0 0 0 0 0 0 0 0
0 0 0 0 0 0 0 0 0 0 0 0 0 0 0 0 0 0 0 0 0 0 0 0 0 0 6 17 4 35 43 129 213 114 22 17 8 0 0 0 0 0 0 0 0 0 0 0 0
0 0 0 0 0 0 0 0 0 0 0 0 0 0 0 0 0 0 0 0 0 0 0 0 0 0 0 17 41 4 0 8 76 18 10 3 1 0 0 0 0 0 0 0 0 0 0 0 0
0 0 0 0 0 0 0 0 0 0 0 0 0 0 0 0 0 0 0 0 0 0 0 0 0 0 0 0 8 0 0 0 2 3 2 0 0 0 0 0 0 0 0 0 0 0 0 0 0
0 0 0 0 0 0 0 0 0 0 0 0 0 0 0 0 0 0 0 0 0 0 0 0 0 0 0 0 0 0 0 0 0 1 0 0 0 0 0 0 0 0 0 0 0 0 0 0 0
0 0 0 0 0 0 0 0 0 0 0 0 0 0 0 0 0 0 0 0 0 0 0 0 0 0 0 0 0 0 0 0 0 2 0 0 0 0 0 0 0 0 0 0 0 0 0 0 0
0 0 0 0 0 0 0 0 0 0 0 0 0 0 0 0 0 0 0 0 0 0 0 0 0 0 0 0 0 0 0 0 0 0 0 0 0 0 0 0 0 0 0 0 0 0 0 0 0
0 0 0 0 0 0 0 0 0 0 0 0 0 0 0 0 0 0 0 0 0 0 0 0 0 0 0 0 0 0 0 0 0 0 0 0 0 0 0 0 0 0 0 0 0 0 0 0 0
0 0 0 0 0 0 0 0 0 0 0 0 0 0 0 0 0 0 0 0 0 0 0 0 0 0 0 0 0 0 0 0 0 0 0 0 0 0 0 0 0 0 0 0 0 0 0 0 0
0 0 0 0 0 0 0 0 0 0 0 0 0 0 0 0 0 0 0 0 0 0 0 0 0 0 0 0 0 0 0 0 0 1 0 0 0 0 0 0 0 0 0 0 0 0 0 0 0
0 0 0 0 0 0 0 0 0 0 0 0 0 0 0 0 0 0 0 0 0 0 0 0 0 0 0 0 0 0 0 0 0 0 2 1 0 0 0 0 0 0 0 0 0 0 0 0 0
0 0 0 0 0 0 0 0 0 0 0 0 0 0 0 0 0 0 0 0 0 0 0 0 0 0 0 0 0 0 0 0 0 0 0 0 0 0 0 0 0 0 0 0 0 0 0 0 0
0 0 0 0 0 0 0 0 0 0 0 0 0 0 0 0 0 0 0 0 0 0 0 0 0 0 0 0 0 0 0 0 0 0 0 0 0 0 0 0 0 0 0 0 0 0 0 0 0
0 0 0 0 0 0 0 0 0 0 0 0 0 0 0 0 0 0 0 0 0 0 0 0 0 0 0 0 0 0 0 0 0 0 0 0 0 0 0 0 0 0 0 0 0 0 0 0 0
0 0 0 0 9 0 0 0 0 0 0 0 0 0 0 0 0 0 0 0 0 0 0 0 0 0 0 0 0 0 0 0 0 0 0 0 0 0 0 0 0 0 0 0 0 0 0 0 0
0 0 11 6 1 9 0 0 0 0 0 0 0 0 0 0 0 0 0 0 0 0 0 0 0 0 0 0 0 0 0 0 0 0 0 0 0 0 0 0 0 0 0 0 0 0 0 0 0
0 0 0 0 0 3 0 0 0 0 0 0 0 0 0 0 0 0 0 0 0 0 0 0 0 0 0 0 0 0 0 0 0 0 0 0 0 0 0 0 0 0 0 0 0 0 0 0 0
0 0 6 0 2 1 0 0 0 0 0 0 0 0 0 0 0 0 0 0 0 0 0 0 0 0 0 0 0 0 0 0 0 0 0 0 0 0 0 0 0 0 0 0 0 0 0 0 0
8 1 0 0 6 36 26 1 0 0 0 0 0 0 0 0 0 0 0 0 0 0 0 0 0 0 0 0 0 0 0 0 0 0 0 0 0 0 0 0 0 0 0 0 0 0 0 0 0
8 0 11 34 22 5 16 7 0 0 0 0 0 0 0 0 0 0 0 0 0 0 0 0 0 0 0 0 0 0 0 0 0 0 0 0 0 0 0 0 0 0 0 0 0 0 0 0 0
CIN
-0 -0 -0 -0 -0 -0 -0 -0 -0 -0 -0 -0 -0 -0 -0 -0 -0 -0 -0 -0 -0 -360 -190 -111 -26 -0 -0 -0 -0 -0 -0 -0 -0 -0 -0 -0 -0 -3 -0 -0 -1 -1 -2 -37 -103 -0 -0 -0 -0
-0 -0 -0 -0 -0 -0 -0 -0 -0 -0 -0 -0 -0 -0 -0 -0 -0 -0 -0 -0 -0 -239 -180 -126 -47 -8 -0 -0 -0 -0 -0 -0 -0 -0 -4 -9 -6 -69 -91 -0 -0 -26 -102 -66 -0 -0 -0 -0 -0
-0 -0 -0 -0 -0 -0 -0 -0 -0 -0 -0 -0 -0 -0 -0 -0 -0 -0 -0 -0 -0 -223 -191 -111 -63 -6 -0 -0 -0 -0 -0 -0 -0 -0 -0 -21 -62 -124 -196 -22 -208 -157 -0 -0 -0 -0 -0 -0 -0
-0 -0 -0 -0 -0 -0 -0 -0 -0 -0 -0 -0 -0 -0 -0 -0 -0 -0 -0 -0 -0 -0 -265 -199 -87 -14 -0 -0 -0 -0 -0 -0 -0 -0 -0 -63 -223 -5 -0 -1 -1 -6 -0 -0 -0 -0 -0 -0 -0
-0 -0 -0 -0 -0 -0 -0 -0 -0 -0 -0 -0 -0 -0 -0 -0 -0 -0 -0 -0 -512 -0 -428 -181 -135 -54 -12 -1 -0 -0 -0 -0 -0 -0 -3 -57 -308 -0 -0 -0 -0 -1 -0 -0 -0 -0 -0 -0 -0
-0 -0 -0 -0 -0 -0 -0 -0 -0 -0 -0 -0 -0 -0 -0 -0 -0 -0 -0 -0 -546 -493 -479 -389 -202 -95 -37 -8 -0 -0 -0 -0 -0 -1 -34 -177 -150 -0 -0 -0 -0 -0 -0 -0 -0 -0 -0 -0 -0
-0 -0 -0 -0 -0 -0 -0 -0 -0 -0 -0 -0 -0 -0 -0 -0 -0 -0 -0 -0 -0 -476 -478 -397 -287 -165 -133 -70 -18 -5 -0 -0 -12 -46 -137 -245 -171 -0 -0 -0 -0 -0 -0 -0 -0 -0 -0 -0 -0
-0 -0 -0 -0 -0 -0 -0 -0 -0 -0 -0 -0 -0 -0 -0 -0 -0 -0 -0 -0 -0 -567 -488 -430 -365 -303 -220 -161 -147 -107 -55 -111 -127 -195 -23 -0 -3 -1 -1 -0 -0 -0 -0 -0 -0 -0 -0 -0 -0
-0 -0 -0 -0 -0 -0 -0 -0 -0 -0 -0 -0 -0 -0 -0 -0 -0 -0 -0 -0 -0 -0 -551 -483 -419 -342 -319 -295 -281 -412 -235 -200 -229 -379 -0 -1 -0 -0 -0 -0 -0 -0 -0 -0 -0 -0 -0 -0 -0
-0 -0 -0 -0 -0 -0 -0 -0 -0 -0 -0 -0 -0 -0 -0 -0 -0 -0 -0 -0 -0 -0 -0 -547 -484 -421 -354 -370 -346 -366 -330 -334 -308 -321 -24 -1 -0 -0 -0 -0 -0 -0 -0 -0 -0 -0 -0 -0 -0
-0 -0 -0 -0 -0 -0 -0 -0 -0 -0 -0 -0 -0 -0 -0 -0 -0 -0 -0 -0 -0 -0 -0 -0 -23 -554 -471 -395 -397 -348 -389 -380 -41 -330 -25 -0 -0 -0 -0 -0 -0 -0 -0 -0 -0 -0 -0 -0 -0
-0 -0 -0 -0 -0 -0 -0 -0 -0 -0 -0 -0 -0 -0 -0 -0 -0 -0 -0 -0 -0 -0 -0 -0 -0 -0 -417 -539 -203 -434 -414 -330 -276 -306 -388 -0 -0 -0 -0 -0 -0 -0 -0 -0 -0 -0 -0 -0 -0
-0 -0 -0 -0 -0 -0 -0 -0 -0 -0 -0 -0 -0 -0 -0 -0 -0 -0 -0 -0 -0 -0 -0 -0 -0 -0 -0 -660 -559 -439 -0 -291 -351 -230 -0 -0 -0 -0 -0 -0 -0 -0 -0 -0 -0 -0 -0 -0 -0
-0 -0 -0 -0 -0 -0 -0 -0 -0 -0 -0 -0 -0 -0 -0 -0 -0 -0 -0 -0 -0 -0 -0 -0 -0 -0 -0 -16 -665 -0 -0 -0 -0 -0 -0 -0 -0 -0 -0 -0 -0 -0 -0 -0 -0 -0 -0 -0 -0
-0 -0 -0 -0 -0 -0 -0 -0 -0 -0 -0 -0 -0 -0 -0 -0 -0 -0 -0 -0 -0 -0 -0 -0 -0 -0 -0 -0 -0 -0 -0 -0 -0 -0 -0 -0 -0 -0 -0 -0 -0 -0 -0 -0 -0 -0 -0 -0 -0
-0 -0 -0 -0 -0 -0 -0 -0 -0 -0 -0 -0 -0 -0 -0 -0 -0 -0 -0 -0 -0 -0 -0 -0 -0 -0 -0 -0 -0 -0 -0 -0 -0 -0 -0 -0 -0 -0 -0 -0 -0 -0 -0 -0 -0 -0 -0 -0 -0
-0 -0 -0 -0 -0 -0 -0 -0 -0 -0 -0 -0 -0 -0 -0 -0 -0 -0 -0 -0 -0 -0 -0 -0 -0 -0 -0 -0 -0 -0 -0 -0 -0 -0 -0 -0 -0 -0 -0 -0 -0 -0 -0 -0 -0 -0 -0 -0 -0
-0 -0 -0 -0 -0 -0 -0 -0 -0 -0 -0 -0 -0 -0 -0 -0 -0 -0 -0 -0 -0 -0 -0 -0 -0 -0 -0 -0 -0 -0 -0 -0 -0 -0 -0 -0 -0 -0 -0 -0 -0 -0 -0 -0 -0 -0 -0 -0 -0
-0 -0 -0 -0 -0 -0 -0 -0 -0 -0 -0 -0 -0 -0 -0 -0 -0 -0 -0 -0 -0 -0 -0 -0 -0 -0 -0 -0 -0 -0 -0 -0 -0 -0 -0 -0 -0 -0 -0 -0 -0 -0 -0 -0 -0 -0 -0 -0 -0
-0 -0 -0 -0 -0 -0 -0 -0 -0 -0 -0 -0 -0 -0 -0 -0 -0 -0 -0 -0 -0 -0 -0 -0 -0 -0 -0 -0 -0 -0 -0 -0 -0 -1 -0 -0 -0 -0 -0 -0 -0 -0 -0 -0 -0 -0 -0 -0 -0
-0 -0 -0 -0 -0 -0 -0 -0 -0 -0 -0 -0 -0 -0 -0 -0 -0 -0 -0 -0 -0 -0 -0 -0 -0 -0 -0 -0 -0 -0 -0 -0 -0 -0 -0 -0 -0 -0 -0 -0 -0 -0 -0 -0 -0 -0 -0 -0 -0
-0 -0 -0 -0 -0 -0 -0 -0 -0 -0 -0 -0 -0 -0 -0 -0 -0 -0 -0 -0 -0 -0 -0 -0 -0 -0 -0 -0 -0 -0 -0 -0 -0 -0 -0 -0 -0 -0 -0 -0 -0 -0 -0 -0 -0 -0 -0 -0 -0
-0 -0 -0 -0 -0 -0 -0 -0 -0 -0 -0 -0 -0 -0 -0 -0 -0 -0 -0 -0 -0 -0 -0 -0 -0 -0 -0 -0 -0 -0 -0 -0 -0 -0 -0 -0 -0 -0 -0 -0 -0 -0 -0 -0 -0 -0 -0 -0 -0
-0 -0 -0 -0 -0 -0 -0 -0 -0 -0 -0 -0 -0 -0 -0 -0 -0 -0 -0 -0 -0 -0 -0 -0 -0 -0 -0 -0 -0 -0 -0 -0 -0 -0 -0 -0 -0 -0 -0 -0 -0 -0 -0 -0 -0 -0 -0 -0 -0
-0 -0 -0 -0 -1 -0 -0 -0 -0 -0 -0 -0 -0 -0 -0 -0 -0 -0 -0 -0 -0 -0 -0 -0 -0 -0 -0 -0 -0 -0 -0 -0 -0 -0 -0 -0 -0 -0 -0 -0 -0 -0 -0 -0 -0 -0 -0 -0 -0
-0 -0 -0 -0 -0 -0 -0 -0 -0 -0 -0 -0 -0 -0 -0 -0 -0 -0 -0 -0 -0 -0 -0 -0 -0 -0 -0 -0 -0 -0 -0 -0 -0 -0 -0 -0 -0 -0 -0 -0 -0 -0 -0 -0 -0 -0 -0 -0 -0
-0 -0 -0 -0 -0 -1 -0 -0 -0 -0 -0 -0 -0 -0 -0 -0 -0 -0 -0 -0 -0 -0 -0 -0 -0 -0 -0 -0 -0 -0 -0 -0 -0 -0 -0 -0 -0 -0 -0 -0 -0 -0 -0 -0 -0 -0 -0 -0 -0
-0 -1 -1 -0 -0 -1 -0 -0 -0 -0 -0 -0 -0 -0 -0 -0 -0 -0 -0 -0 -0 -0 -0 -0 -0 -0 -0 -0 -0 -0 -0 -0 -0 -0 -0 -0 -0 -0 -0 -0 -0 -0 -0 -0 -0 -0 -0 -0 -0
-1 -3 -0 -0 -0 -0 -0 -0 -0 -0 -0 -0 -0 -0 -0 -0 -0 -0 -0 -0 -0 -0 -0 -0 -0 -0 -0 -0 -0 -0 -0 -0 -0 -0 -0 -0 -0 -0 -0 -0 -0 -0 -0 -0 -0 -0 -0 -0 -0
-14 -0 -2 -0 -3 -7 -2 -4 -0 -0 -0 -0 -0 -0 -0 -0 -0 -0 -0 -0 -0 -0 -0 -0 -0 -0 -0 -0 -0 -0 -0 -0 -0 -0 -0 -0 -0 -0 -0 -0 -0 -0 -0 -0 -0 -0 -0 -0 -0
Wind_Speed
7 5 5 6 6 4 2 4 4 3 1 5 3 7 11 11 8 6 3 4 2 12 15 17 14 15 14 12 13 13 12 12 11 12 11 10 9 9 9 8 9 10 9 8 10 11 6 7 6
4 5 5 4 5 5 8 4 1 6 6 4 4 6 7 5 3 1 3 7 6 12 12 16 12 15 14 13 13 13 13 12 12 12 11 10 10 8 7 8 9 9 8 8 10 8 7 6 6
6 5 5 4 3 6 6 3 4 4 4 4 5 2 7 4 1 3 5 8 8 12 12 14 15 14 14 13 13 13 12 12 12 12 12 11 10 8 6 2 5 5 8 8 8 6 6 6 5
4 5 4 6 5 6 4 8 9 7 4 2 3 8 3 4 2 4 3 9 9 12 12 14 16 13 14 14 14 13 13 13 12 13 14 13 5 6 4 2 3 5 6 6 6 7 6 6 5
4 3 5 5 6 3 5 6 5 6 3 2 2 4 5 3 2 2 3 8 9 11 12 12 13 13 13 13 15 14 13 13 13 13 12 10 8 7 6 5 5 5 5 5 6 6 6 6 6
4 4 6 6 4 2 2 2 4 3 3 0 4 8 5 7 4 4 4 8 9 11 12 12 11 10 12 13 14 14 14 14 14 13 11 9 9 8 8 7 7 8 7 7 7 6 5 6 5
5 4 8 8 9 5 0 0 4 5 6 7 2 8 4 8 4 2 5 7 9 10 11 11 13 13 7 9 10 12 13 13 14 13 11 8 8 10 9 9 8 8 8 8 7 7 7 6 6
4 4 6 4 6 8 3 2 4 7 12 2 4 6 5 8 4 2 4 7 9 10 12 13 12 14 14 13 9 10 10 11 13 12 11 10 9 11 9 7 9 10 9 8 8 8 8 7 7
3 6 7 8 6 3 6 6 3 6 11 14 8 12 14 3 1 4 6 8 9 10 12 13 13 13 14 14 13 10 10 11 9 10 10 8 9 11 11 10 11 11 10 10 10 9 8 8 7
6 8 9 5 9 9 11 10 11 10 14 17 14 15 11 11 9 11 11 11 13 13 14 14 14 14 14 11 13 14 13 8 8 9 9 8 11 9 10 10 10 10 11 11 11 10 9 7 5
5 9 12 11 12 12 12 14 15 13 17 15 15 13 15 14 11 14 15 15 14 14 12 15 15 15 15 12 9 7 7 8 9 14 11 12 9 7 6 5 6 7 9 7 8 7 6 3 2
10 14 14 15 9 6 15 17 14 14 21 20 21 20 18 15 15 14 15 14 13 14 15 16 17 15 15 10 9 9 9 9 9 11 14 10 7 7 7 6 8 7 7 7 6 4 3 4 3
14 13 14 13 13 13 16 21 19 21 22 23 20 17 17 16 17 14 13 12 12 15 16 17 16 17 14 15 10 10 10 9 10 10 12 10 10 9 9 7 7 7 7 6 6 5 5 4 4
10 11 16 17 16 15 17 20 16 21 15 16 15 18 17 16 14 14 11 12 13 14 15 16 16 16 16 15 14 10 10 10 10 10 11 14 10 9 9 9 8 8 7 7 6 6 6 5 4
8 13 16 20 18 11 5 15 13 16 11 12 17 18 19 20 20 16 16 15 14 12 12 13 14 15 17 17 15 11 10 10 10 10 13 15 13 12 11 9 8 8 7 8 6 6 5 5 4
9 12 11 8 2 4 6 15 15 7 12 22 23 22 19 20 16 16 14 15 12 11 11 12 10 13 15 15 12 10 10 10 9 10 10 14 14 13 11 9 9 9 8 8 7 7 6 5 5
13 13 16 13 8 4 11 12 16 22 20 24 24 19 16 18 14 11 14 12 12 11 10 9 9 12 12 12 11 11 12 10 8 8 9 13 14 13 10 9 8 10 9 9 9 8 8 7 6
16 18 17 18 18 13 15 22 18 20 21 24 22 17 13 10 13 17 17 16 15 13 10 9 6 7 9 8 8 7 8 8 9 9 9 11 10 13 11 9 9 9 7 8 8 9 8 7 7
20 20 21 20 19 21 18 17 19 19 23 19 15 10 7 11 15 17 18 18 18 18 16 14 8 5 4 6 6 7 8 7 7 7 10 12 11 12 12 8 10 10 9 9 9 7 9 7 7
16 19 20 19 13 1 14 19 21 19 20 14 10 8 13 11 15 16 17 18 19 18 18 18 15 7 3 5 4 5 5 6 7 6 8 10 11 13 12 11 10 12 9 11 11 11 8 4 9
17 17 19 19 17 13 13 15 14 10 16 9 4 15 15 15 15 16 18 19 17 18 17 16 15 12 10 7 3 3 3 4 5 5 6 7 10 10 11 12 11 12 11 11 12 11 13 8 8
16 13 9 11 8 11 7 12 12 13 8 15 13 13 14 14 14 15 17 20 21 19 16 17 17 16 11 9 5 7 3 5 4 6 6 6 9 11 12 12 12 12 10 12 11 11 11 8 8
8 3 7 8 11 14 11 15 9 16 11 7 12 10 12 12 12 13 14 15 16 16 16 16 17 16 15 12 7 6 7 6 6 3 6 7 7 10 11 12 13 12 10 12 14 15 14 10 8
3 7 12 11 8 11 7 8 4 4 3 8 9 10 10 9 11 13 13 14 14 14 14 13 16 16 16 14 14 13 9 9 8 7 5 5 5 6 10 10 11 11 11 12 11 12 15 13 11
5 9 8 9 11 19 11 8 11 13 3 7 10 8 8 9 10 12 12 12 12 13 12 10 15 18 17 17 17 14 12 11 9 9 7 5 5 5 6 9 10 10 11 12 11 12 13 14 12
12 10 8 14 16 16 14 12 10 6 10 10 11 10 9 10 9 10 11 12 12 13 14 15 16 16 16 14 14 13 14 8 7 9 8 7 6 6 6 7 10 12 12 12 11 9 10 12 11
3 6 7 6 8 9 14 21 24 14 12 10 10 9 8 8 8 9 10 11 12 14 16 16 17 16 15 14 11 12 12 12 10 10 9 6 8 7 7 7 8 10 11 11 12 9 11 11 12
8 6 6 5 5 15 17 23 17 15 10 9 7 7 7 9 9 11 11 12 11 13 14 15 14 14 13 14 12 11 11 11 11 9 11 11 9 8 9 7 6 7 9 10 11 10 9 11 10
9 8 11 12 10 13 17 13 8 10 7 8 6 5 7 8 9 9 9 10 10 10 10 11 12 12 11 11 11 11 10 11 10 10 11 11 11 10 8 8 6 6 8 9 9 11 10 12 12
13 18 18 8 6 10 13 14 14 7 3 4 4 2 3 4 5 5 5 6 8 9 8 9 9 10 11 10 10 9 10 10 10 11 11 11 11 11 10 10 7 5 8 9 10 12 10 14 13
Wind_Direction
252 269 284 254 260 230 268 97 353 338 318 29 325 312 335 311 307 5 122 185 176 163 159 171 173 172 171 170 165 160 164 167 161 153 152 144 140 126 112 128 120 108 107 92 76 74 82 82 69
295 285 237 285 262 270 80 60 46 30 0 325 291 264 265 302 358 288 206 169 175 163 168 181 171 173 172 170 168 167 169 169 170 166 168 163 155 139 127 124 121 117 101 96 88 93 91 80 76
264 270 272 295 295 346 5 55 10 329 319 288 298 249 307 327 48 357 67 160 174 168 177 181 164 177 177 177 174 174 179 180 178 171 168 161 150 144 170 98 98 107 111 97 97 99 105 94 76
256 199 207 261 321 328 286 330 343 311 120 192 291 276 194 298 336 44 75 159 177 173 182 146 164 184 181 181 183 185 187 190 187 182 181 152 132 155 171 195 214 129 109 117 125 131 114 108 88
235 252 257 252 286 283 307 302 312 302 296 238 212 294 282 148 131 151 153 175 188 180 188 163 172 189 188 184 186 189 196 201 193 188 181 151 178 195 192 205 186 145 158 149 139 121 113 96 89
234 291 254 272 345 332 313 2 303 281 319 58 248 278 290 106 169 171 190 193 200 190 191 191 175 193 192 192 192 193 196 200 193 180 171 153 190 206 205 202 179 170 168 166 150 132 124 110 98
286 268 290 304 299 297 159 32 255 336 297 288 334 284 299 176 143 157 194 210 203 202 194 199 187 193 186 189 193 193 195 197 178 170 159 163 185 203 195 201 187 181 178 165 149 149 135 120 105
277 270 276 247 309 308 127 193 308 293 306 29 306 256 302 79 106 178 212 216 208 211 201 203 200 198 202 200 196 185 181 176 173 169 163 160 177 191 179 181 188 190 180 163 155 148 140 134 117
278 255 264 275 281 319 133 285 152 294 274 277 238 275 301 78 232 221 219 224 217 214 208 210 208 208 208 209 199 199 189 188 185 184 171 148 199 186 180 195 174 189 170 168 164 155 141 128 115
239 252 282 295 295 287 308 293 284 282 272 276 275 254 250 249 248 253 239 237 221 222 215 212 213 212 212 211 210 204 208 207 207 200 191 195 207 197 199 177 170 178 160 169 169 154 146 197 161
216 255 282 291 284 300 293 287 280 262 274 274 294 295 303 291 258 258 260 254 247 223 219 214 215 214 213 213 208 198 207 200 212 216 205 201 202 190 188 170 178 172 161 175 171 159 194 171 167
257 248 268 285 301 284 277 288 280 264 272 286 286 292 292 279 269 263 260 260 254 241 225 212 214 213 213 210 207 211 206 201 202 208 200 190 193 184 188 185 184 182 174 183 178 176 156 163 151
246 268 278 282 276 267 283 275 276 277 281 280 284 286 277 272 270 269 263 262 252 246 233 219 204 213 209 209 210 210 211 204 202 200 195 187 188 187 188 190 184 181 174 179 174 176 171 164 153
330 298 283 277 274 273 266 276 288 277 277 290 289 289 285 272 278 281 265 258 248 240 236 227 217 210 212 212 212 208 210 207 208 200 194 192 192 188 188 184 186 183 182 176 181 173 171 167 153
286 295 296 280 269 239 269 273 238 273 294 280 280 285 291 295 295 281 266 258 264 243 239 234 224 212 215 213 212 215 211 207 203 203 196 194 202 192 188 186 184 184 174 174 171 168 170 160 158
267 272 278 290 90 145 209 278 300 347 305 288 286 285 290 293 296 298 298 303 291 273 254 227 227 226 215 221 216 211 212 207 209 204 198 192 201 198 192 188 186 179 170 173 174 174 173 175 173
240 268 281 301 315 130 209 282 300 299 292 282 284 290 298 299 317 356 357 346 336 321 298 281 228 234 236 227 226 215 214 214 212 209 207 200 198 203 192 192 187 177 176 182 179 175 176 173 174
284 293 291 296 299 224 272 288 288 289 283 279 287 295 295 311 28 37 20 20 9 6 353 332 302 240 238 239 234 234 229 215 210 211 211 209 203 201 199 194 184 176 183 186 185 177 181 172 162
276 286 284 283 292 297 296 296 296 286 289 282 286 304 322 51 56 39 28 22 19 19 11 358 342 299 241 230 225 232 230 217 227 232 215 208 199 201 208 197 183 175 188 192 185 174 173 170 148
281 281 281 288 288 296 284 299 289 285 270 293 315 336 69 54 44 34 29 29 28 23 16 8 357 341 216 229 239 260 253 246 236 220 238 224 211 197 200 200 193 181 183 189 186 177 167 175 176
268 272 280 285 310 283 292 281 299 273 268 290 31 94 71 53 39 32 27 28 28 29 23 29 24 18 6 339 290 200 263 1 306 252 233 229 237 212 210 210 201 186 187 186 186 187 182 171 193
272 275 290 283 282 295 24 298 311 284 252 107 77 62 59 55 50 38 31 28 25 27 24 29 27 31 30 20 343 327 298 273 240 252 261 234 223 233 209 218 217 198 192 193 187 185 193 187 183
266 337 277 271 270 285 256 269 271 281 260 134 84 64 59 58 56 51 47 41 35 31 28 29 38 34 30 29 23 9 338 310 307 337 285 235 231 229 235 213 222 216 210 202 187 184 193 199 189
357 282 262 256 264 260 281 255 300 35 82 116 94 72 64 59 60 52 45 46 39 33 32 32 40 40 38 36 24 18 359 336 323 311 292 284 237 220 231 229 224 225 216 211 203 196 195 198 203
225 260 293 273 253 265 289 277 258 303 287 144 130 105 79 66 59 55 47 46 42 33 35 36 38 36 31 32 32 23 5 351 333 327 311 306 287 256 237 230 226 229 227 219 207 202 201 202 202
292 271 270 287 281 292 314 276 267 64 105 99 102 98 80 56 47 47 39 36 30 30 29 29 33 35 30 30 29 27 20 5 350 341 328 324 314 299 272 242 231 231 228 225 225 213 208 207 209
62 242 349 326 296 282 267 271 277 198 128 119 118 106 82 67 41 38 33 37 23 23 26 27 30 24 23 26 28 28 23 19 11 352 340 334 322 312 306 282 245 238 234 227 224 221 221 220 211
239 315 296 212 260 268 271 285 280 280 165 140 107 77 54 46 33 27 24 29 30 23 14 23 28 26 18 13 19 23 21 15 13 7 8 351 330 315 301 273 265 239 245 235 224 225 223 224 223
258 251 229 263 259 270 272 264 346 1 121 140 112 73 48 36 21 13 15 11 28 35 26 16 15 16 13 17 12 7 12 11 8 7 5 358 341 334 310 298 279 261 250 237 234 234 232 226 226
281 266 269 257 233 237 264 261 322 26 64 94 115 89 23 37 34 14 7 23 22 18 17 16 11 8 357 10 12 8 0 1 3 2 356 349 348 340 334 319 293 266 264 256 238 236 230 241 228